Showing default

INTELSAT 35E, 42818

Orbit data source: Space-Track

INTELSAT 35E, 42818 is a payload satellite owned by Intelsat SA (US) (US) in GEO that was launched on Wed, 05 Jul 2017 UTC via an FALCON 9 launch vehicle from the Air Force Eastern Test Range (AFETR). Payload-class satellites include a variety of spacecraft equipped with specific instruments for various scientific and technological missions. These include communications satellites like Starlink; space stations such as the ISS; scientific satellites like the Hubble; Earth observation satellites from companies like Planet Labs, Umbra, and HawkEye 360; GPS; miniature CubeSats for education and research; and military/defense satellites.

Not visible in the next 10 days
Identifier
42818, 2017-041A
Orbit
GEO
Country
Flag of USUS / ITSO
Related business
Manufacturer
Boeing/ES
Mission
Operational Commercial Communications
Bus & Motor
BSS-702MP, IHI BT-4
Mass
6,761 kg wet, ~3,500 kg dry
Launch date (UTC)
2017-07-05 (9 years ago)
Launch vehicle
FALCON 9
Launch site
Air Force Eastern Test Range (AFETR)
Object type
Payload
Rocket body
Debris
Shape & HBR
Box + 2 Pan, 22.0 m
Radar Cross Section
59.953 m², Large (>1 m²)

Expand to show TLE details & history
Last TLE update: 14 hours ago

TLE from 14 hours ago
0 INTELSAT 35E
1 42818U 17041A   26122.40517839  .00000000  00000-0  00000+0 0  9995
2 42818   0.0127 278.9846 0002175 125.0573 287.6515  1.00269437 32356
Epoch: 2026-05-02T09:43Z
TLE epoch observation values (Epoch: 2026-05-02T09:43:27.412Z)
Latitude
0.03161°
Longitude
-34.52339°
Altitude
35,783.942 km
Speed
3.075 km/s
True Right ascension
22h 06m 39s
True Declination
0° 01' 54"
Sunlit
Object was in daylight at epoch
Visualization orbit readout
Latitude
Unknown
Longitude
Unknown
Altitude
Unknown
Speed
Unknown
Apparent Right ascension
Unknown
Apparent Declination
Unknown
Sunlit
N/A
Visualization observer readout
Local Sidereal Time
07:28:33
Azimuth
Unknown
Elevation
Unknown
Doppler factor
Unknown
Orbital elements
Apogee altitude
35,797.495 km
Perigee altitude
35,779.152 km
Semi-major axis
42,166.461 km
Eccentricity
0.00022
Inclination
0.0127°
RAAN
278.9846°
Arg. of periapsis
125.0573°
True anomaly
287.62775°
Mean anomaly
287.6515°
Eccentric anomaly
287.63962°
Mean motion
0.25066 °/min
Orbital period
1,436.18 mins
BSTAR
0
Loading maneuver chart data...
Computing Atmospheric mass density...
Loading historical data...
Loading historical data...
Loading historical data...
Loading historical data...
Loading historical data...
Loading historical data...
Loading historical data...
Other satellites on launch #41 in the year 2017 (2017-07-05 UTC)

Documentation

Showing up to 5 results
|